Tracking 28052 objects as of 25-Sep-2023
HD Live streaming from Space Station
objects crossing your sky now

STARLINK-5215

Track STARLINK-5215 now!
10-day predictions
STARLINK-5215 is classified as:


NORAD ID: 54759
Int'l Code: 2022-175B
Perigee: 546.0 km
Apogee: 547.7 km
Inclination: 53.2 °
Period: 95.4 minutes
Semi major axis: 6917 km
RCS: Unknown
Launch date: December 17, 2022
Source: United States (US)
Launch site: AIR FORCE EASTERN TEST RANGE (AFETR)
Your satellite tracking list
Your tracking list is empty




NASA's NSSDC Master Catalog

Two Line Element Set (TLE):
1 54759U 22175B   23267.78366100 -.00000458  00000-0 -10691-4 0  9998
2 54759  53.2157 105.7134 0001199  84.5124 275.6005 15.08844055 42427
Source of the keplerian elements: AFSPC